Regional Weather Roundup
Issued by NWS Grand Forks, ND

Home | Current Version | Previous Version | Text Only | Print | Product List | Glossary Off
Versions: 1 2 3 4 5 6 7 8 9 10 11 12 13 14 15 16 17 18 19 20 21 22 23 24 25 26 27 28 29 30 31 32 33 34 35 36 37 38 39 40 41 42 43 44 45 46 47 48 49 50

526
ASUS43 KFGF 260510
RWRFGF
PRAIRIE TO PINES  WEATHER ROUNDUP
NATIONAL WEATHER SERVICE EASTERN NORTH DAKOTA/GRAND FORKS ND
1100 PM CST SAT FEB 25 2017

 **SATELLITE DATA USED TO AUGMENT SKY COVER AT AUTOMATED STATIONS**
 *****  WEATHER ACROSS EASTERN NORTH DAKOTA  *****

CITY           SKY/WX    TMP DP  RH WIND       PRES   REMARKS
GRAND FORKS    CLOUDY    17   8  67 N9        29.73F WCI   6
GRAND FRKS AFB LGT SNOW  16  10  79 NE7       29.72S WCI   6
DEVILS LAKE    LGT SNOW  14  10  85 NE6       29.70R VSB 3/4 WCI   5
FARGO          FAIR      22  20  92 W3        29.71S
WAHPETON ARPT    N/A     21  18  86 CALM      29.73S VSB<1/4
$$

 ***** WEATHER ACROSS CENTRAL AND WESTERN NORTH DAKOTA  *****

CITY           SKY/WX    TMP DP  RH WIND       PRES   REMARKS
BISMARCK       CLOUDY    28  25  88 W12       29.67R WCI  18
MINOT          FAIR      10   6  84 NW8       29.70R WCI  -2
JAMESTOWN      CLOUDY    20  17  88 S10       29.65F WCI   9
MINOT AFB      FAIR       2  -2  85 NW7       29.69S WCI -11
GARRISON         N/A     14   9  80 NE10      29.68R WCI   1
WILLISTON      FAIR       3   1  91 CALM      29.71S
DICKINSON      CLOUDY    21  18  88 NW7       29.63R WCI  12
HETTINGER      FAIR      16  14  92 W8        29.67S WCI   5
$$

 *****  OTHER AIRPORT OBSERVATIONS IN OUR AREA  *****

CITY           SKY/WX    TMP DP  RH WIND       PRES   REMARKS
WALHALLA       NOT AVBL
GRAFTON AIRPOR CLOUDY    14  10  85 N8        29.76S WCI   3
VALLEY CITY AR CLOUDY    18  18 100 S3        29.69F
CANDO          NOT AVBL
CAVALIER APRT    N/A     12   7  79 N7        29.74S WCI   2
GWINNER        FAIR      23  23 100 SW5       29.71F WCI  17
SHEYENNE NWR     N/A     19  16  88 W3        29.95S
ROLLA          MOCLDY     9   5  85 N8        29.68S WCI  -4
 ***** THE ABOVE OBSERVATIONS ARE NON NWS ARE NOT QUALITY
       CONTROLLED AND MAY MIS-REPORT RAIN FOR SNOW...
$$

  *****  WEATHER ACROSS NORTHERN MINNESOTA  *****

CITY           SKY/WX    TMP DP  RH WIND       PRES   REMARKS
FLAG ISLAND    CLOUDY    12   7  79 NW10      29.68S WCI  -1
WARROAD        FAIR      10   7  85 W3        29.70S
ROSEAU         FAIR      10   7  85 W5        29.70F WCI   2
HALLOCK        FAIR      12   9  85 CALM      29.73S
THF RVR FALLS  FAIR      15  10  80 N12       29.71F WCI   2
BAUDETTE       CLOUDY    14   7  73 W8        29.67F WCI   3
WASKISH        FAIR      12  10  92 CALM      29.68F
CROOKSTON      FAIR      18  14  86 N8        29.73F WCI   7
GREENBUSH NDAW   N/A      9   9 100 NW3         N/A
$$
  *****  WEATHER ACROSS CENTRAL AND WEST MINNESOTA  *****

CITY           SKY/WX    TMP DP  RH WIND       PRES   REMARKS
FOSSTON        CLOUDY    18  12  79 N5        29.69F WCI  11
BEMIDJI        FAIR      18  16  91 CALM      29.68S
PARK RAPIDS    CLOUDY    26  22  84 SW3       29.67F
ELBOW LAKE     LGT SNOW  25  24  99 CALM      29.72S
WADENA         LGT SNOW  23  23 100 CALM      29.68F
DETROIT LAKES  FAIR      27  23  86 CALM      29.69F
MOORHEAD       FAIR      25  19  80 W3        29.72S
FERGUS FALLS   FOG       19  19 100 CALM      29.76S VSB 1/4
MORRIS MN      CLOUDY    30  25  80 SW9       29.71S WCI  22
STAPLES        LGT SNOW  25  25 100 CALM      29.70S VSB 3/4
$$
  *****  WEATHER ELSEWHERE ACROSS MINNESOTA  *****

CITY           SKY/WX    TMP DP  RH WIND       PRES   REMARKS
DULUTH         LGT SNOW  26  24  92 SW6       29.69F VSB 3/4 WCI  19
INTRNTL FALLS  FAIR      16   7  67 W7        29.67S WCI   6
ELY            CLOUDY    21  18  86 SW5       29.66S WCI  15
CLOQUET        LGT SNOW  27  25  93 CALM      29.70F
WHEATON        MOCLDY    27  25  93 CALM      29.75S
BRAINERD       CLOUDY    27  25  92 SW5       29.70F FOG     WCI  22
HIBBING        CLOUDY    21  19  92 SW3       29.67F
ALEXANDRIA     CLOUDY    28  23  81 SW16      29.70S WCI  16
SAINT CLOUD    CLOUDY    27  19  72 SW12      29.75F WCI  17
MINNEAPOLIS    MOCLDY    25  15  66 SW13G20   29.83F WCI  14
$$

  *****  WEATHER ACROSS SOUTH DAKOTA  *****

CITY           SKY/WX    TMP DP  RH WIND       PRES   REMARKS
SIOUX FALLS    MOCLDY    24  19  81 SW6       29.79F WCI  17
BROOKINGS      MOCLDY    25  20  81 SW13      29.74F WCI  14
WATERTOWN      CLOUDY    26  22  84 SW13      29.71S WCI  15
HURON          FAIR      23  22  96 W5        29.76F WCI  17
SISSETON         N/A     25  24  96 CALM      29.72S
ABERDEEN       FAIR      19  16  88 S5        29.73F WCI  12
MITCHELL       FAIR      28  21  75 SW8       29.78F WCI  20
PIERRE         CLOUDY    26  22  84 SW5       29.73F WCI  20
MOBRIDGE       MOCLDY    26  21  81 S6        29.67F WCI  19
RAPID CITY     FAIR      20  17  88 NW9       29.72S WCI   9
$$

  *****  SOME WEATHER IN NEARBY STATES *****

CITY           SKY/WX    TMP DP  RH WIND       PRES   REMARKS
GLASGOW MT     FAIR      17  13  84 E13       29.65S WCI   4
GREAT FALLS MT FAIR      27   9  46 SW21      29.63S WCI  13
CHEYENNE WY    FAIR      16   2  54 W12       29.74S WCI   3
SCOTTSBLUFF NE FAIR      15   6  67 NW9       29.79R WCI   3
OMAHA NE       MOCLDY    30  20  66 SE8       29.90F WCI  22
DES MOINES IA  CLOUDY    31  20  63 S12       29.95F WCI  22
DAVENPORT IA   CLOUDY    26  18  71 SW5       30.05F WCI  20
CHICAGO IL     MOCLDY    26  14  60 W9        30.03S WCI  17
EAU CLAIRE WI  FAIR      20  13  74 SW10      29.86F WCI   9
LA CROSSE WI   CLOUDY    23  14  68 S7        29.95F WCI  15
$$

  *****  SOME NATIONAL WEATHER *****

CITY           SKY/WX    TMP DP  RH WIND       PRES   REMARKS
LA GUARDIA NY  MOCLDY    47  35  63 NW21G31   29.65R
RALEIGH NC     FAIR      52  20  28 NW10G22   29.89R
ATLANTA GA     FAIR      45  23  42 NW14      30.06S
NEW ORLEANS LA FAIR      58  36  43 NE9       30.12R
OKLAHOMA CITY  FAIR      33  19  56 SE9       30.03S
ALBUQUERQUE NM FAIR      41   5  22 CALM      29.89R
SALT LAKE CITY FAIR      27  20  75 SE5       29.99S WCI  22
LOS ANGELES CA MOCLDY    53  40  61 W14       30.02S
BOISE ID       FAIR      29  17  61 SE8       29.98F WCI  21
SEATTLE WA     CLOUDY    41  33  73 SW10G20   29.96F
$$

*** WEATHER ACROSS MANITOBA...SASKATCHEWAN AND ONTARIO ***
                ***ONTARIO***

CITY           SKY/WX    TMP DP  RH WIND       PRES   REMARKS
GERALDTON      CLEAR      3  -2  78 W7        29.63R WCI  -9
THUNDER BAY    CLOUDY    18   7  62 CALM      29.70F
SIOUX LOOKOUT  SNOWSHWR  12   9  85 VRB2      29.60F
TORONTO        PTCLDY    28  18  64 W20       29.81R WCI  15
BIG TROUT LK   FLURRIES   0  -4  85 NW7       29.58S WCI -13
PICKLE LAKE    NOT AVBL
DRYDEN         FLURRIES  14  12  92 NW3       29.58F
KENORA         FLURRIES   9   5  85 NW8       29.64S WCI  -4
$$
                *** MANITOBA***

CITY           SKY/WX    TMP DP  RH WIND       PRES   REMARKS
BRANDON        CLEAR      1  -4  78 NW8       29.71S WCI -12
DAUPHIN        CLEAR      3  -2  78 W10       29.72S WCI -12
ISLAND LAKE    CRYSTALS  -4  -9  77 W2        29.64S
PILOT MOUND      N/A      7   3  85 W5          N/A  WCI  -2
THE PAS        CLOUDY     0  -6  78 CALM      29.68F
THOMPSON       PTCLDY   -13 -17  84 NW2       29.66F
WINNIPEG       MOCLDY    10   5  79 W5        29.74R WCI   2
LYNN LAKE      MOCLDY   -15 -18  84 NW5       29.64S WCI -27
CHURCHILL      CRYSTALS -24 -29  76 W7        29.70F WCI -42
GILLAM         FLURRIES -13 -17  84 W3        29.64S
$$
                ***SASKATCHEWAN***

CITY           SKY/WX    TMP DP  RH WIND       PRES   REMARKS
ESTEVAN        PTCLDY    -2  -4  92 SW3       29.69S
KINDERSLEY     LGT SNOW  19  18  93 SW7       29.60R WCI  10
LLOYDMINSTER   MOCLDY    14   9  79 NW10      29.62R WCI   1
PRINCE ALBERT  PTCLDY     1  -4  78 CALM      29.65S
REGINA         PTCLDY     5   1  85 S8        29.68S WCI  -8
YORKTON        CLEAR      0  -4  85 SW7       29.67F WCI -13
N. BATTLEFORD  PTCLDY    10   7  85 W3        29.65R
LA RONGE       FLURRIES  -2  -6  84 CALM      29.60S
SASKATOON      FLURRIES  16  14  93 S5        29.65S WCI   9
SWIFT CURRENT  FLURRIES  16  12  86 S8        29.59S WCI   5
$$
NOTE: THESE ARE AUTOMATED STATIONS WITH LIMITED QUALITY CONTROL
      "FAIR" INDICATES FEW OR NO CLOUDS BELOW 12,000 FEET WITH NO
      SIGNIFICANT WEATHER AND/OR OBSTRUCTIONS TO VISIBILITY.
      SKY/WX - SKY CONDITION AND SIGNIFICANT WEATHER.
      TMP - AIR TEMPERATURE.    DP   - DEWPOINT TEMPERATURE.
      RH  - RELATIVE HUMIDITY.  PRES - PRESSURE.
      HX  - HEAT INDEX.         WCI  - WIND CHILL INDEX.
$




USA.gov is the U.S. government's official web portal to all federal, state and local government web resources and services.